[[[{"header":{"parameterUnit":"kt","parameterCategory":2,"dx":1,"dy":1,"la1":30.253999710083008,"la2":30.299108505249023,"lo1":-89.0895004272461,"lo2":-89.04439544677734,"nx":28,"ny":28,"refTime":"2022-09-22T21:00:00:Z","depth":0,"parameterNumber":1,"parameterNumberName":"U-component_of_WINDS"},"data":[-6.5741,-6.5864,-6.5849,-6.5982,-6.5992,-6.6081,-6.6108,-6.6141,-6.6164,-6.6269,-6.6327,-6.6325,-6.6343,-6.6409,-6.6471,-6.6469,-6.6498,-6.6552,-6.6541,-6.631,-6.6278,-6.6246,-6.6217,-6.6558,-6.6558,-6.6783,-6.6785,-6.6787,-6.5575,-6.5585,-6.5651,-6.5705,-6.5761,-6.57,-6.5738,-6.579,-6.5871,-6.59,-6.5956,-6.6047,-6.6117,-6.6116,-6.6182,-6.624,-6.6216,-6.6259,-6.6256,-6.626,-6.6012,-6.5981,-6.6278,-6.6278,-6.6277,-6.6277,-6.6277,-6.6277,-6.5268,-6.5342,-6.5366,-6.5437,-6.5459,-6.5496,-6.5564,-6.5559,-6.5623,-6.5689,-6.5658,-6.575,-6.5776,-6.5848,-6.5868,-6.594,-6.589,-6.5933,-6.5944,-6.5957,-6.5973,-6.5655,-6.595,-6.5949,-6.5948,-6.5947,-6.5947,0,-6.504,-6.5023,-6.5084,-6.5142,-6.5192,-6.5235,-6.5272,-6.5314,-6.5271,-6.5327,-6.5405,-6.5448,-6.5533,-6.5606,-6.5664,-6.5676,-6.562,-6.5612,-6.5642,-6.566,-6.5669,-6.5669,-6.5268,-6.5604,-6.5601,-6.5599,-6.5597,-6.5596,-6.4732,-6.4819,-6.4835,-6.4881,-6.4897,-6.4971,-6.5012,-6.4967,-6.5013,-6.5052,-6.512,-6.5191,-6.5247,-6.5376,-6.537,-6.5434,-6.5408,-6.5538,-6.5417,-6.5431,-6.5414,-6.541,-6.542,-6.5564,-6.5568,-6.5571,-6.5574,0,-6.4561,-6.4535,-6.4664,-6.4672,-6.4676,-6.477,-6.4777,-6.4848,-6.4835,-6.4932,-6.4952,-6.4933,-6.5011,-6.4983,-6.5067,-6.5051,-6.5208,-6.5179,-6.5199,-6.5193,-6.5309,-6.5299,-6.5684,-6.5734,-6.5376,-6.538,-6.5382,0,-6.429,-6.4405,-6.436,-6.4436,-6.4563,-6.4515,-6.4642,-6.4643,-6.4664,-6.474,-6.467,-6.4743,-6.4695,-6.4765,-6.4741,-6.4863,-6.4878,-6.4874,-6.4867,-6.4882,-6.4884,-6.4909,-6.4894,-6.4843,-6.4841,-6.484,-6.4838,0,-6.4027,-6.4136,-6.4259,-6.428,-6.43,-6.4359,-6.437,-6.4392,-6.4433,-6.4481,-6.4507,-6.4567,-6.4601,-6.4648,-6.4617,-6.4536,-6.4765,-6.4648,-6.4761,-6.4763,-6.4816,-6.4814,-6.5159,-6.4836,-6.4835,-6.4835,-6.4834,0,-6.3804,-6.3852,-6.4034,-6.4049,-6.4079,-6.4161,-6.4215,-6.4278,-6.4307,-6.4296,-6.4334,-6.4284,-6.4387,-6.4273,-6.4415,-6.4319,-6.4356,-6.4361,-6.4368,-6.4378,-6.4252,-6.4455,-6.4783,-6.4818,-6.4385,-6.4381,-6.4378,0,-6.3512,-6.3687,-6.3647,-6.3821,-6.3898,-6.3814,-6.3903,-6.393,-6.3923,-6.3988,-6.398,-6.4055,-6.3964,-6.3984,-6.4057,-6.4053,-6.4178,-6.4035,-6.4134,-6.4138,-6.4132,-6.4433,-6.4491,-6.4713,-6.4329,-6.4334,-6.4338,0,-6.3282,-6.3303,-6.3337,-6.3359,-6.3385,-6.3449,-6.3551,-6.3614,-6.366,-6.3697,-6.3783,-6.3886,-6.3823,-6.3856,-6.3822,-6.39,-6.4092,-6.3821,-6.3821,-6.3874,-6.4301,-6.4355,-6.4393,-6.4052,-6.4058,-6.4063,-6.4299,0,-6.2957,-6.304,-6.3129,-6.3179,-6.3223,-6.333,-6.3298,-6.3349,-6.3311,-6.3301,-6.3426,-6.3441,-6.3506,-6.3539,-6.3504,-6.369,-6.3655,-6.3586,-6.3476,-6.3672,-6.375,-6.3781,-6.3363,-6.3359,-6.3356,-6.3354,0,0,-6.2685,-6.2803,-6.2755,-6.2851,-6.2886,-6.2797,-6.2914,-6.2937,-6.2988,-6.3014,-6.2951,-6.31,-6.3115,-6.327,-6.3329,-6.3355,-6.3386,-6.3318,-6.3578,-6.3603,-6.3626,-6.371,-6.3743,-6.3349,-6.3347,-6.3346,-6.3346,0,-6.256,-6.2574,-6.2689,-6.2711,-6.2741,-6.2724,-6.2751,-6.2766,-6.2765,-6.2885,-6.2812,-6.2882,-6.3002,-6.3029,-6.3058,-6.3298,-6.324,-6.332,-6.346,-6.355,-6.3579,-6.3604,-6.3692,-6.3724,-6.3338,-6.3339,-6.3339,0,-6.233,-6.234,-6.2391,-6.2464,-6.2483,-6.2564,-6.2439,-6.253,-6.259,-6.2489,-6.261,-6.2615,-6.2647,-6.2796,-6.2862,-6.2807,-6.3109,-6.3007,-6.3025,-6.3032,-6.3118,-6.3153,-6.3184,-6.2775,-6.2773,-6.2771,0,0,-6.2227,-6.2303,-6.2299,-6.2435,-6.2452,-6.2428,-6.2467,-6.2433,-6.2463,-6.2475,-6.248,-6.2512,-6.2581,-6.2628,-6.2691,-6.2859,-6.2863,-6.2939,-6.2966,-6.2987,-6.3007,-6.3098,-6.3133,-6.2764,-6.2764,-6.2764,0,0,-6.2178,-6.2178,-6.2134,-6.2287,-6.2317,-6.2323,-6.2408,-6.2355,-6.2408,-6.2392,-6.2341,-6.2347,-6.2485,-6.2493,-6.2403,-6.2651,-6.2542,-6.2562,-6.2642,-6.2675,-6.2701,-6.2698,-6.2279,0,0,0,0,0,-6.2033,-6.2178,-6.2138,-6.2159,-6.225,-6.2345,-6.2357,-6.2316,-6.224,-6.2308,-6.2303,-6.2237,-6.2434,-6.2354,-6.2376,-6.2477,-6.2675,-6.2691,-6.2706,-6.2847,-6.2882,-6.2912,0,0,0,0,0,0,-6.2041,-6.2067,-6.2134,-6.2147,-6.2167,-6.2339,-6.2201,-6.2194,-6.2231,-6.2217,-6.224,-6.2237,-6.2206,-6.234,-6.236,-6.2457,-6.2272,-6.2681,-6.2695,-6.2707,-6.2859,-6.2888,-6.2912,0,0,0,0,0,-6.2047,-6.2068,-6.2225,-6.2145,-6.2162,-6.2143,-6.2195,-6.2188,-6.2217,-6.2209,-6.2205,-6.2183,-6.221,-6.2224,-6.2352,-6.2449,-6.2258,-6.2265,-6.269,-6.2701,-6.271,-6.2873,0,0,0,0,0,0,-6.2052,-6.2062,-6.2228,-6.2231,-6.2087,-6.2133,-6.2138,-6.2184,-6.2205,-6.2203,-6.2149,-6.2138,-6.2214,-6.2224,-6.2236,-6.2448,-6.2246,-6.2254,-6.2259,-6.2698,-6.2706,-6.2714,0,0,0,0,0,0,-6.2051,-6.2066,-6.223,-6.2159,-6.2154,-6.2123,-6.2128,-6.2231,-6.2207,-6.2144,-6.2135,-6.2144,-6.2197,-6.2226,-6.2234,-6.2396,-6.2237,-6.2244,-6.225,-6.2253,-6.2705,-6.2711,0,0,0,0,0,0,-6.2057,-6.207,-6.2157,-6.2154,-6.2149,-6.219,-6.2213,-6.231,-6.2145,-6.2145,-6.2129,-6.2122,-6.22,-6.2208,-6.2234,-6.2392,-6.2395,-6.2237,-6.2242,-6.2246,-6.2248,0,0,0,0,0,0,0,-6.2061,-6.1983,-6.2204,-6.215,-6.2146,-6.2268,-6.2269,-6.227,-6.2143,-6.2137,-6.2131,-6.2125,-6.2193,-6.2202,-6.221,-6.2389,0,0,-6.2236,-6.224,0,0,0,0,0,0,0,0,-6.1976,-6.1981,-6.2205,-6.2205,-6.2206,-6.2268,-6.2269,-6.2269,-6.2142,-6.2137,-6.2132,-6.2127,-6.2195,-6.2202,-6.2209,0,0,0,0,0,0,0,0,0,0,0,0,0,0,0,-6.2205,-6.2205,0,-6.2268,-6.2269,-6.2269,-6.2142,-6.2137,-6.2133,-6.2129,-6.2197,-6.2203,-6.2209,0,0,0,0,0,0,0,0,0,0,0,0,0,0,0,0,0,0,0,0,0,0,0,0,0,0,0,0,0,0,0,0,0,0,0,0,0,0,0,0,0,0,0,0,0,0,0,0,0,0,0,0,0,0,0,0,0,0,0,0,0,0,0,0,0,0,0,0,0]}],[{"header":{"parameterUnit":"kt","parameterCategory":2,"dx":1,"dy":1,"la1":30.253999710083008,"la2":30.299108505249023,"lo1":-89.0895004272461,"lo2":-89.04439544677734,"nx":28,"ny":28,"refTime":"2022-09-22T21:00:00:Z","depth":0,"parameterNumber":2,"parameterNumberName":"V-component_of_WINDS"},"data":[-7.404,-7.4095,-7.4079,-7.4135,-7.413,-7.4166,-7.4173,-7.4181,-7.4183,-7.4222,-7.4242,-7.4231,-7.4226,-7.4245,-7.4266,-7.426,-7.427,-7.4302,-7.429,-7.4162,-7.4143,-7.4125,-7.4111,-7.4304,-7.4305,-7.4425,-7.4426,-7.4427,-7.3949,-7.3945,-7.3969,-7.3982,-7.4003,-7.3963,-7.397,-7.399,-7.4022,-7.4025,-7.4043,-7.4077,-7.4101,-7.4084,-7.4104,-7.4129,-7.4111,-7.4136,-7.4134,-7.4134,-7.3996,-7.3982,-7.415,-7.415,-7.415,-7.415,-7.415,-7.415,-7.3779,-7.3813,-7.3811,-7.3837,-7.3839,-7.3848,-7.3877,-7.3862,-7.3886,-7.3905,-7.388,-7.3916,-7.3915,-7.393,-7.3931,-7.3958,-7.3927,-7.3949,-7.3955,-7.3961,-7.397,-7.38,-7.3961,-7.396,-7.3959,-7.3959,-7.3959,0,-7.3649,-7.3633,-7.3655,-7.3673,-7.3691,-7.3703,-7.3711,-7.3729,-7.3687,-7.3709,-7.3737,-7.3751,-7.3778,-7.3803,-7.3818,-7.3813,-7.3773,-7.3766,-7.3781,-7.3795,-7.3805,-7.3801,-7.3578,-7.3762,-7.376,-7.3759,-7.3758,-7.3757,-7.3477,-7.3518,-7.3507,-7.3525,-7.3525,-7.3555,-7.3568,-7.3529,-7.3545,-7.3549,-7.358,-7.3604,-7.3622,-7.367,-7.3652,-7.3671,-7.3652,-7.3724,-7.3654,-7.3666,-7.3653,-7.3652,-7.3656,-7.3738,-7.3741,-7.3743,-7.3744,0,-7.3382,-7.3354,-7.3412,-7.3397,-7.3394,-7.3439,-7.3426,-7.3457,-7.3439,-7.348,-7.3487,-7.3458,-7.3487,-7.3455,-7.3482,-7.3464,-7.3539,-7.3519,-7.3539,-7.3533,-7.3595,-7.359,-7.38,-7.3826,-7.3625,-7.3627,-7.3628,0,-7.3224,-7.3279,-7.3234,-7.3269,-7.3329,-7.3288,-7.3348,-7.3338,-7.3335,-7.3367,-7.3316,-7.3347,-7.3302,-7.3328,-7.3303,-7.3358,-7.3362,-7.3353,-7.3345,-7.3358,-7.3359,-7.3366,-7.3357,-7.3326,-7.3325,-7.3324,-7.3324,0,-7.3078,-7.3118,-7.3175,-7.3179,-7.3168,-7.3196,-7.3192,-7.3188,-7.3202,-7.3214,-7.3223,-7.324,-7.325,-7.3265,-7.3232,-7.3186,-7.3298,-7.3228,-7.3288,-7.3289,-7.3314,-7.3313,-7.3507,-7.3322,-7.3322,-7.3322,-7.3321,0,-7.2946,-7.296,-7.3046,-7.3035,-7.3047,-7.3084,-7.3099,-7.3123,-7.3123,-7.3109,-7.3119,-7.308,-7.3125,-7.3058,-7.3119,-7.3069,-7.3081,-7.3075,-7.3079,-7.3081,-7.3007,-7.3122,-7.3309,-7.3327,-7.3084,-7.3082,-7.308,0,-7.2787,-7.2866,-7.283,-7.2913,-7.2945,-7.2885,-7.2925,-7.2927,-7.2912,-7.2936,-7.2919,-7.2948,-7.2891,-7.2895,-7.293,-7.2913,-7.2979,-7.2903,-7.294,-7.2942,-7.2942,-7.3114,-7.315,-7.3271,-7.3054,-7.3057,-7.3059,0,-7.266,-7.2645,-7.2662,-7.2665,-7.266,-7.2686,-7.2733,-7.2752,-7.277,-7.2777,-7.2814,-7.2853,-7.2812,-7.282,-7.279,-7.2827,-7.2933,-7.2778,-7.2777,-7.2808,-7.3038,-7.3072,-7.3093,-7.2905,-7.2908,-7.291,-7.3038,0,-7.2468,-7.2503,-7.2548,-7.2557,-7.2572,-7.2621,-7.2587,-7.2608,-7.2577,-7.256,-7.2615,-7.2607,-7.2625,-7.264,-7.261,-7.2706,-7.2685,-7.264,-7.2573,-7.2685,-7.2727,-7.2743,-7.2514,-7.2512,-7.251,-7.2508,0,0,-7.2323,-7.2372,-7.2331,-7.2375,-7.2385,-7.2321,-7.2377,-7.2379,-7.2386,-7.2394,-7.2356,-7.241,-7.2405,-7.2475,-7.2507,-7.2514,-7.2528,-7.249,-7.2632,-7.2646,-7.2659,-7.2703,-7.2721,-7.2505,-7.2504,-7.2504,-7.2503,0,-7.2245,-7.2242,-7.2298,-7.2298,-7.2298,-7.2276,-7.229,-7.2278,-7.2269,-7.2322,-7.2268,-7.2296,-7.234,-7.2342,-7.2349,-7.2481,-7.2438,-7.2489,-7.2572,-7.2614,-7.2631,-7.2645,-7.2693,-7.271,-7.2499,-7.2499,-7.2499,0,-7.2115,-7.2106,-7.2129,-7.2149,-7.2147,-7.2181,-7.2102,-7.2142,-7.2166,-7.2093,-7.2147,-7.2138,-7.2137,-7.2207,-7.2237,-7.2203,-7.2359,-7.2303,-7.2314,-7.2316,-7.2356,-7.2376,-7.2393,-7.2162,-7.2161,-7.216,0,0,-7.2052,-7.2085,-7.2062,-7.2129,-7.2132,-7.2101,-7.2115,-7.2086,-7.2087,-7.2088,-7.2075,-7.2077,-7.2102,-7.2119,-7.214,-7.2222,-7.2219,-7.2263,-7.2279,-7.2292,-7.2302,-7.2345,-7.2365,-7.2156,-7.2156,-7.2156,0,0,-7.2022,-7.1999,-7.1968,-7.2042,-7.2045,-7.2027,-7.2069,-7.2031,-7.2046,-7.2037,-7.1989,-7.1988,-7.2052,-7.2045,-7.1997,-7.2116,-7.205,-7.206,-7.2118,-7.2138,-7.2153,-7.2154,-7.1915,0,0,0,0,0,-7.1926,-7.2002,-7.1974,-7.1981,-7.2005,-7.2042,-7.2045,-7.2007,-7.1962,-7.1996,-7.1979,-7.1932,-7.201,-7.1966,-7.1974,-7.2028,-7.2106,-7.2115,-7.2123,-7.2217,-7.2238,-7.2255,0,0,0,0,0,0,-7.1928,-7.1937,-7.1972,-7.1958,-7.1963,-7.2039,-7.1953,-7.1945,-7.1957,-7.1947,-7.1937,-7.1932,-7.1901,-7.196,-7.1967,-7.2019,-7.1912,-7.2109,-7.2117,-7.2124,-7.2224,-7.2241,-7.2256,0,0,0,0,0,-7.193,-7.1937,-7.1986,-7.1956,-7.1961,-7.1929,-7.195,-7.1942,-7.1951,-7.1925,-7.1918,-7.1922,-7.1903,-7.1907,-7.1964,-7.2017,-7.1907,-7.191,-7.2114,-7.212,-7.2126,-7.2232,0,0,0,0,0,0,-7.1931,-7.193,-7.1986,-7.1986,-7.1924,-7.1924,-7.1923,-7.194,-7.1926,-7.1921,-7.1906,-7.1899,-7.1906,-7.1908,-7.1912,-7.2018,-7.1902,-7.1905,-7.1907,-7.2119,-7.2124,-7.2128,0,0,0,0,0,0,-7.1926,-7.1931,-7.1986,-7.1948,-7.1943,-7.192,-7.1919,-7.1961,-7.1927,-7.1909,-7.1902,-7.1903,-7.1901,-7.191,-7.1912,-7.198,-7.1899,-7.1902,-7.1904,-7.1905,-7.2123,-7.2126,0,0,0,0,0,0,-7.1927,-7.1931,-7.1947,-7.1944,-7.1939,-7.1936,-7.1956,-7.1983,-7.1895,-7.191,-7.1886,-7.1882,-7.1904,-7.1905,-7.1913,-7.198,-7.198,-7.1899,-7.1901,-7.1902,-7.1903,0,0,0,0,0,0,0,-7.1928,-7.1911,-7.1986,-7.1941,-7.1936,-7.1985,-7.1985,-7.1985,-7.1894,-7.1891,-7.1887,-7.1884,-7.1882,-7.1885,-7.1889,-7.198,0,0,-7.1898,-7.19,0,0,0,0,0,0,0,0,-7.1908,-7.191,-7.1986,-7.1986,-7.1986,-7.1985,-7.1985,-7.1985,-7.1894,-7.1891,-7.1888,-7.1885,-7.1883,-7.1886,-7.1888,0,0,0,0,0,0,0,0,0,0,0,0,0,0,0,-7.1986,-7.1986,0,-7.1985,-7.1985,-7.1985,-7.1893,-7.1891,-7.1888,-7.1886,-7.1884,-7.1886,-7.1888,0,0,0,0,0,0,0,0,0,0,0,0,0,0,0,0,0,0,0,0,0,0,0,0,0,0,0,0,0,0,0,0,0,0,0,0,0,0,0,0,0,0,0,0,0,0,0,0,0,0,0,0,0,0,0,0,0,0,0,0,0,0,0,0,0,0,0,0,0]}]]]